This is the latest recevied weather packets stored in our database for station/object N5XJB. If no packets are shown the sender has not sent any weather packets the latest 10 day(s).
| Time | Temp. | Humidity | Pressure | Rain* | Wind** | Luminosity | Snow |
|---|---|---|---|---|---|---|---|
| 1777569256 | 28.89° C | 74% | 1011.4 hPa | 0 mm | - | 422 W/m² | - |
| 1777568953 | 28.33° C | 75% | 1011 hPa | 0 mm | - | 439 W/m² | - |
| 1777568649 | 27.78° C | 77% | 1011.4 hPa | 0 mm | - | 805 W/m² | - |
| 1777568347 | 27.78° C | 77% | 1011.7 hPa | 0 mm | - | 377 W/m² | - |
| 1777568044 | 28.33° C | 77% | 1011.4 hPa | 0 mm | - | 528 W/m² | - |
| 1777567740 | 27.78° C | 77% | 1011.4 hPa | 0 mm | - | 416 W/m² | - |
| 1777567437 | 27.78° C | 78% | 1011.7 hPa | 0 mm | - | 355 W/m² | - |
| 1777567135 | 27.78° C | 78% | 1011.7 hPa | 0 mm | - | 356 W/m² | - |
| 1777566833 | 27.22° C | 78% | 1011.7 hPa | 0 mm | - | 287 W/m² | - |
| 1777566530 | 26.67° C | 79% | 1011.7 hPa | 0 mm | - | 447 W/m² | - |
| 1777566228 | 26.67° C | 80% | 1012.1 hPa | 0 mm | - | 350 W/m² | - |
| 1777565924 | 26.67° C | 80% | 1011.7 hPa | 0 mm | - | 271 W/m² | - |
| 1777565619 | 26.67° C | 78% | 1011.7 hPa | 0 mm | - | 275 W/m² | - |
| 1777565317 | 26.67° C | 79% | 1012.1 hPa | 0 mm | - | 360 W/m² | - |
| 1777565012 | 26.67° C | 81% | 1012.1 hPa | 0 mm | - | 436 W/m² | - |
| 1777564708 | 26.67° C | 80% | 1012.1 hPa | 0 mm | - | 392 W/m² | - |
| 1777564404 | 26.11° C | 83% | 1011.7 hPa | 0 mm | - | 620 W/m² | - |
| 1777564100 | 26.11° C | 84% | 1012.1 hPa | 0 mm | - | 808 W/m² | - |
| 1777563795 | 25.56° C | 86% | 1012.1 hPa | 0 mm | - | 678 W/m² | - |
| 1777563492 | 25.56° C | 87% | 1012.1 hPa | 0 mm | - | 303 W/m² | - |
| 1777563191 | 25.56° C | 86% | 1012.1 hPa | 0 mm | - | 299 W/m² | - |
| 1777562888 | 25° C | 87% | 1012.1 hPa | 0 mm | - | 310 W/m² | - |
| 1777562585 | 25° C | 87% | 1012.1 hPa | 0 mm | - | 264 W/m² | - |
| 1777562283 | 25° C | 88% | 1011.7 hPa | 0 mm | - | 496 W/m² | - |
| 1777561980 | 25° C | 89% | 1012.1 hPa | 0 mm | - | 269 W/m² | - |
* Rain latest hour (hover to see other rain measurements)
** Current wind speed in m/s (hover to see current wind gust speed)